2021-04-10 00:07:39 r, 21.06m,0000000001Hz,0001422964c,0000003.088s, 012.2C,00002191
2021-04-10 00:17:40 r, 21.09m,0000000000Hz,0001458340c,0000003.165s, 012.2C,00002191
2021-04-10 00:27:42 r, 20.95m,0000000000Hz,0001289406c,0000002.798s, 012.2C,00002191
2021-04-10 00:37:39 r, 20.67m,0000000001Hz,0001000477c,0000002.171s, 012.2C,00002191
2021-04-10 00:47:42 r, 21.01m,0000000000Hz,0001360636c,0000002.953s, 012.5C,00002191
2021-04-10 00:57:40 r, 21.04m,0000000000Hz,0001405895c,0000003.051s, 012.5C,00002191
2021-04-10 01:07:39 r, 21.11m,0000000000Hz,0001490883c,0000003.235s, 012.5C,00002191
2021-04-10 01:17:42 r, 21.02m,0000000000Hz,0001377123c,0000002.989s, 012.5C,00002191
2021-04-10 01:27:40 r, 20.69m,0000000001Hz,0001017296c,0000002.208s, 012.5C,00002191
2021-04-10 01:37:39 r, 20.71m,0000000001Hz,0001038605c,0000002.254s, 012.5C,00002191
2021-04-10 01:47:40 r, 20.89m,0000000000Hz,0001217909c,0000002.643s, 012.5C,00002191
2021-04-10 01:57:41 r, 20.92m,0000000001Hz,0001256225c,0000002.726s, 012.5C,00002191
2021-04-10 02:07:39 r, 20.94m,0000000000Hz,0001277511c,0000002.772s, 012.2C,00002191
2021-04-10 02:17:41 r, 20.93m,0000000000Hz,0001268893c,0000002.754s, 011.9C,00002191
2021-04-10 02:27:40 r, 20.94m,0000000000Hz,0001274888c,0000002.767s, 011.6C,00002191
2021-04-10 02:37:39 r, 20.94m,0000000001Hz,0001274675c,0000002.766s, 011.2C,00002191
2021-04-10 02:47:40 r, 20.92m,0000000000Hz,0001253959c,0000002.721s, 011.2C,00002191
2021-04-10 02:57:42 r, 20.92m,0000000001Hz,0001257136c,0000002.728s, 010.9C,00002191
2021-04-10 03:07:39 r, 20.93m,0000000000Hz,0001264145c,0000002.743s, 010.9C,00002191
2021-04-10 03:17:42 r, 20.92m,0000000000Hz,0001248298c,0000002.709s, 010.6C,00002191
2021-04-10 03:27:40 r, 20.92m,0000000000Hz,0001245816c,0000002.704s, 010.6C,00002191
2021-04-10 03:37:39 r, 20.92m,0000000001Hz,0001253584c,0000002.720s, 010.3C,00002191
2021-04-10 03:47:42 r, 20.92m,0000000000Hz,0001258361c,0000002.731s, 010.3C,00002191
2021-04-10 03:57:40 r, 20.94m,0000000000Hz,0001276507c,0000002.770s, 010.3C,00002191
2021-04-10 04:07:39 r, 21.04m,0000000001Hz,0001397919c,0000003.034s, 010.3C,00002191
2021-04-10 04:17:40 r, 20.82m,0000000001Hz,0001149717c,0000002.495s, 009.9C,00002191
2021-04-10 04:27:41 r, 20.15m,0000000000Hz,0000621953c,0000001.350s, 010.3C,00002191
2021-04-10 04:37:39 r, 20.35m,0000000001Hz,0000744650c,0000001.616s, 010.6C,00002191
2021-04-10 04:47:41 r, 20.95m,0000000001Hz,0001292097c,0000002.804s, 011.2C,00002191
2021-04-10 04:57:40 r, 20.94m,0000000000Hz,0001284340c,0000002.787s, 011.2C,00002191
2021-04-10 05:07:39 r, 20.89m,0000000001Hz,0001223487c,0000002.655s, 010.9C,00002191
2021-04-10 05:17:39 r, 20.72m,0000000000Hz,0001042963c,0000002.263s, 010.6C,00002191
2021-04-10 05:27:42 r, 20.20m,0000000000Hz,0000652670c,0000001.416s, 010.3C,00002191
2021-04-10 05:37:40 r, 19.26m,0000000002Hz,0000276383c,0000000.600s, 009.9C,00002191
2021-04-10 05:47:39 r, 17.95m,0000000006Hz,0000082539c,0000000.179s, 009.9C,00002191
2021-04-10 05:57:40 r, 16.34m,0000000025Hz,0000018914c,0000000.041s, 009.6C,00002191
2021-04-10 06:07:42 r, 14.44m,0000000141Hz,0000000000c,0000000.000s, 009.3C,00002191
2021-04-10 06:17:39 r, 12.44m,0000000892Hz,0000000000c,0000000.000s, 009.3C,00002191
2021-04-10 06:27:41 r, 10.49m,0000005378Hz,0000000000c,0000000.000s, 009.0C,00002191
2021-04-10 06:37:40 r, 08.82m,0000025111Hz,0000000000c,0000000.000s, 009.0C,00002191
2021-04-10 06:47:39 r, 07.63m,0000075331Hz,0000000000c,0000000.000s, 009.0C,00002191
2021-04-10 06:57:42 r, 06.81m,0000159333Hz,0000000000c,0000000.000s, 009.0C,00002191
2021-04-10 07:07:40 r, 06.17m,0000287775Hz,0000000000c,0000000.000s, 009.0C,00002191
2021-04-10 07:17:39 r, 00.00m,0000438538Hz,0000000000c,0000000.000s, 009.3C,00002191
2021-04-10 07:27:42 r, 00.00m,0000597977Hz,0000000000c,0000000.000s, 010.3C,00002191
2021-04-10 07:37:40 r, 00.00m,0000597982Hz,0000000000c,0000000.000s, 011.2C,00002191
2021-04-10 07:47:39 r, 00.00m,0000597823Hz,0000000000c,0000000.000s, 012.5C,00002191
2021-04-10 07:57:40 r, 00.00m,0000597675Hz,0000000000c,0000000.000s, 013.8C,00002191
2021-04-10 08:07:41 r, 00.00m,0000597624Hz,0000000000c,0000000.000s, 014.8C,00002191
2021-04-10 08:17:39 r, 00.00m,0000597590Hz,0000000000c,0000000.000s, 015.7C,00002191
2021-04-10 08:27:41 r, 00.00m,0000597484Hz,0000000000c,0000000.000s, 016.7C,00002191
2021-04-10 08:37:40 r, 00.00m,0000597263Hz,0000000000c,0000000.000s, 018.0C,00002191
2021-04-10 08:47:39 r, 00.00m,0000597169Hz,0000000000c,0000000.000s, 019.0C,00002191
2021-04-10 08:57:40 r, 00.00m,0000597133Hz,0000000000c,0000000.000s, 019.6C,00002191
2021-04-10 09:07:42 r, 00.00m,0000597048Hz,0000000000c,0000000.000s, 020.9C,00002191
2021-04-10 09:17:39 r, 00.00m,0000596948Hz,0000000000c,0000000.000s, 021.9C,00002191
2021-04-10 09:27:42 r, 00.00m,0000596859Hz,0000000000c,0000000.000s, 023.2C,00002191
2021-04-10 09:37:40 r, 00.00m,0000596643Hz,0000000000c,0000000.000s, 024.4C,00002191
2021-04-10 09:47:39 r, 00.00m,0000596470Hz,0000000000c,0000000.000s, 025.4C,00002191
2021-04-10 09:57:42 r, 00.00m,0000596383Hz,0000000000c,0000000.000s, 026.7C,00002191
2021-04-10 10:07:40 r, 00.00m,0000596161Hz,0000000000c,0000000.000s, 027.7C,00002191
2021-04-10 10:17:39 r, 00.00m,0000596164Hz,0000000000c,0000000.000s, 028.6C,00002191
2021-04-10 10:27:40 r, 00.00m,0000596023Hz,0000000000c,0000000.000s, 029.3C,00002191
2021-04-10 10:37:41 r, 00.00m,0000595964Hz,0000000000c,0000000.000s, 029.9C,00002191
2021-04-10 10:47:39 r, 00.00m,0000595874Hz,0000000000c,0000000.000s, 030.6C,00002191
2021-04-10 10:57:41 r, 00.00m,0000595718Hz,0000000000c,0000000.000s, 030.9C,00002191
2021-04-10 11:07:40 r, 00.00m,0000595770Hz,0000000000c,0000000.000s, 031.5C,00002191
2021-04-10 11:17:39 r, 00.00m,0000595527Hz,0000000000c,0000000.000s, 032.2C,00002191
2021-04-10 11:27:40 r, 00.00m,0000595550Hz,0000000000c,0000000.000s, 033.1C,00002191
2021-04-10 11:37:42 r, 00.00m,0000595500Hz,0000000000c,0000000.000s, 033.5C,00002191
2021-04-10 11:47:39 r, 00.00m,0000595314Hz,0000000000c,0000000.000s, 034.1C,00002191
2021-04-10 11:57:42 r, 00.00m,0000595268Hz,0000000000c,0000000.000s, 034.4C,00002191
2021-04-10 12:07:40 r, 00.00m,0000595220Hz,0000000000c,0000000.000s, 035.1C,00002191
2021-04-10 12:17:39 r, 00.00m,0000594988Hz,0000000000c,0000000.000s, 036.4C,00002191
2021-04-10 12:27:40 r, 00.00m,0000595022Hz,0000000000c,0000000.000s, 036.7C,00002191
2021-04-10 12:37:41 r, 00.00m,0000594890Hz,0000000000c,0000000.000s, 037.3C,00002191
2021-04-10 12:47:39 r, 00.00m,0000594830Hz,0000000000c,0000000.000s, 037.7C,00002191
2021-04-10 12:57:41 r, 00.00m,0000594709Hz,0000000000c,0000000.000s, 038.6C,00002191
2021-04-10 13:07:40 r, 00.00m,0000594539Hz,0000000000c,0000000.000s, 039.6C,00002191
2021-04-10 13:17:39 r, 00.00m,0000594374Hz,0000000000c,0000000.000s, 039.9C,00002191
2021-04-10 13:27:40 r, 00.00m,0000594384Hz,0000000000c,0000000.000s, 040.2C,00002191
2021-04-10 13:37:42 r, 00.00m,0000594345Hz,0000000000c,0000000.000s, 040.6C,00002191
2021-04-10 13:47:39 r, 00.00m,0000594314Hz,0000000000c,0000000.000s, 040.6C,00002191
2021-04-10 13:57:42 r, 00.00m,0000594313Hz,0000000000c,0000000.000s, 040.9C,00002191
2021-04-10 14:07:40 r, 00.00m,0000594243Hz,0000000000c,0000000.000s, 041.5C,00002191
2021-04-10 14:17:39 r, 00.00m,0000594229Hz,0000000000c,0000000.000s, 041.2C,00002191
2021-04-10 14:27:42 r, 00.00m,0000594284Hz,0000000000c,0000000.000s, 041.2C,00002191
2021-04-10 14:37:40 r, 00.00m,0000594294Hz,0000000000c,0000000.000s, 041.2C,00002191
2021-04-10 14:47:39 r, 00.00m,0000594262Hz,0000000000c,0000000.000s, 041.2C,00002191
2021-04-10 14:57:40 r, 00.00m,0000594163Hz,0000000000c,0000000.000s, 041.9C,00002191
2021-04-10 15:07:42 r, 00.00m,0000594195Hz,0000000000c,0000000.000s, 041.5C,00002191
2021-04-10 15:17:39 r, 00.00m,0000594272Hz,0000000000c,0000000.000s, 041.5C,00002191
2021-04-10 15:27:41 r, 00.00m,0000594259Hz,0000000000c,0000000.000s, 041.5C,00002191
2021-04-10 15:37:40 r, 00.00m,0000594386Hz,0000000000c,0000000.000s, 040.9C,00002191
2021-04-10 15:47:39 r, 00.00m,0000594328Hz,0000000000c,0000000.000s, 041.2C,00002191
2021-04-10 15:57:42 r, 00.00m,0000594481Hz,0000000000c,0000000.000s, 040.6C,00002191
2021-04-10 16:07:40 r, 00.00m,0000594462Hz,0000000000c,0000000.000s, 040.2C,00002191
2021-04-10 16:17:39 r, 00.00m,0000594475Hz,0000000000c,0000000.000s, 040.6C,00002191
2021-04-10 16:27:42 r, 00.00m,0000594458Hz,0000000000c,0000000.000s, 040.2C,00002191
2021-04-10 16:37:40 r, 00.00m,0000594571Hz,0000000000c,0000000.000s, 039.6C,00002191
2021-04-10 16:47:39 r, 00.00m,0000594671Hz,0000000000c,0000000.000s, 039.0C,00002191
2021-04-10 16:57:40 r, 00.00m,0000594851Hz,0000000000c,0000000.000s, 038.0C,00002191
2021-04-10 17:07:41 r, 00.00m,0000595017Hz,0000000000c,0000000.000s, 037.3C,00002191
2021-04-10 17:17:39 r, 00.00m,0000595172Hz,0000000000c,0000000.000s, 036.4C,00002191
2021-04-10 17:27:41 r, 00.00m,0000595199Hz,0000000000c,0000000.000s, 035.7C,00002191
2021-04-10 17:37:40 r, 00.00m,0000595169Hz,0000000000c,0000000.000s, 035.4C,00002191
2021-04-10 17:47:39 r, 00.00m,0000595317Hz,0000000000c,0000000.000s, 034.8C,00002191
2021-04-10 17:57:40 r, 00.00m,0000595261Hz,0000000000c,0000000.000s, 034.4C,00002191
2021-04-10 18:07:42 r, 00.00m,0000595424Hz,0000000000c,0000000.000s, 033.8C,00002191
2021-04-10 18:17:39 r, 00.00m,0000595521Hz,0000000000c,0000000.000s, 032.8C,00002191
2021-04-10 18:27:42 r, 00.00m,0000595609Hz,0000000000c,0000000.000s, 032.2C,00002191
2021-04-10 18:37:40 r, 00.00m,0000595716Hz,0000000000c,0000000.000s, 031.5C,00002191
2021-04-10 18:47:39 r, 00.00m,0000595887Hz,0000000000c,0000000.000s, 030.6C,00002191
2021-04-10 18:57:40 r, 00.00m,0000595930Hz,0000000000c,0000000.000s, 029.6C,00002191
2021-04-10 19:07:41 r, 00.00m,0000596007Hz,0000000000c,0000000.000s, 029.0C,00002191
2021-04-10 19:17:39 r, 00.00m,0000560537Hz,0000000000c,0000000.000s, 028.0C,00002191
2021-04-10 19:27:41 r, 00.00m,0000473390Hz,0000000000c,0000000.000s, 027.3C,00002191
2021-04-10 19:37:40 r, 05.89m,0000371510Hz,0000000000c,0000000.000s, 026.4C,00002191
2021-04-10 19:47:39 r, 06.21m,0000277650Hz,0000000000c,0000000.000s, 025.1C,00002191
2021-04-10 19:57:40 r, 06.66m,0000182580Hz,0000000000c,0000000.000s, 024.1C,00002191
2021-04-10 20:07:42 r, 07.35m,0000096895Hz,0000000000c,0000000.000s, 023.2C,00002191
2021-04-10 20:17:39 r, 08.34m,0000038956Hz,0000000000c,0000000.000s, 022.2C,00002191
2021-04-10 20:27:42 r, 09.76m,0000010617Hz,0000000000c,0000000.000s, 021.5C,00002191
2021-04-10 20:37:40 r, 11.57m,0000001993Hz,0000000000c,0000000.000s, 020.9C,00002191
2021-04-10 20:47:39 r, 13.58m,0000000312Hz,0000000000c,0000000.000s, 020.3C,00002191
2021-04-10 20:57:42 r, 15.67m,0000000046Hz,0000010140c,0000000.022s, 019.6C,00002191
2021-04-10 21:07:40 r, 17.39m,0000000009Hz,0000049916c,0000000.108s, 019.3C,00002191
2021-04-10 21:17:39 r, 18.73m,0000000002Hz,0000169989c,0000000.369s, 019.0C,00002191
2021-04-10 21:27:40 r, 19.79m,0000000001Hz,0000449220c,0000000.975s, 018.3C,00002191
2021-04-10 21:37:41 r, 20.42m,0000000000Hz,0000801560c,0000001.739s, 018.0C,00002191
2021-04-10 21:47:39 r, 20.71m,0000000000Hz,0001037773c,0000002.252s, 018.0C,00002191
2021-04-10 21:57:39 r, 20.81m,0000000000Hz,0001138913c,0000002.472s, 018.0C,00002191
2021-04-10 22:07:42 r, 20.84m,0000000000Hz,0001177990c,0000002.556s, 018.0C,00002191
2021-04-10 22:17:40 r, 20.87m,0000000000Hz,0001196733c,0000002.597s, 018.3C,00002191
2021-04-10 22:27:39 r, 20.87m,0000000001Hz,0001207020c,0000002.619s, 018.3C,00002191
2021-04-10 22:37:42 r, 20.88m,0000000000Hz,0001220389c,0000002.648s, 018.3C,00002191
2021-04-10 22:47:40 r, 20.89m,0000000000Hz,0001228227c,0000002.665s, 018.0C,00002191
2021-04-10 22:57:39 r, 20.90m,0000000000Hz,0001239624c,0000002.690s, 018.0C,00002191
2021-04-10 23:07:40 r, 20.91m,0000000000Hz,0001250658c,0000002.714s, 018.0C,00002191
2021-04-10 23:17:41 r, 20.92m,0000000001Hz,0001257968c,0000002.730s, 018.0C,00002191
2021-04-10 23:27:39 r, 20.93m,0000000000Hz,0001274387c,0000002.766s, 018.0C,00002191
2021-04-10 23:37:41 r, 20.95m,0000000001Hz,0001294518c,0000002.809s, 017.7C,00002191
2021-04-10 23:47:40 r, 20.96m,0000000000Hz,0001306310c,0000002.835s, 017.7C,00002191
2021-04-10 23:57:39 r, 20.97m,0000000000Hz,0001312396c,0000002.848s, 017.4C,00002191
